Location: Cave
(41.8160°N, 12.9350°E)
Time: 18:20:07
(UTC+02:00)

ISS - Pass Details

Date: 06 July 2019
Orbit: 409 x 418 km, 51.6° (Epoch: 18 July)

Event Time Altitude Azimuth Distance (km) Brightness Sun altitude
Exits shadow 03:19:50 56° 284° (WNW) 495 -3.6 -19.1°
Maximum altitude 03:20:15 64° 327° (NNW) 460 -3.6 -19.1°
Drops below altitude 10° 03:23:33 10° 50° (NE) 1,478 0.1 -18.7°
Sets 03:25:40 0° 54° (NE) 2,341 1.3 -18.5°
